Regional Weather Roundup
Issued by NWS

Home | Current Version | Previous Version | Text Only | Print | Product List | Glossary On
Versions: 1 2 3 4 5 6 7 8 9 10 11 12 13 14 15 16 17 18 19 20 21 22 23 24 25 26 27 28 29 30 31 32 33 34 35 36 37 38 39 40 41 42 43 44 45 46 47 48 49 50
272
ASUS44 KOUN 302100
RWROK

WEATHER ROUNDUP FOR OKLAHOMA
NATIONAL WEATHER SERVICE NORMAN OK
400 PM CDT THU MAR 30 2017

NOTE: "FAIR" INDICATES FEW OR NO CLOUDS BELOW 12,000 FEET WITH NO
      SIGNIFICANT WEATHER AND/OR OBSTRUCTIONS TO VISIBILITY.

OKZ001>007-009>012-014-015-017-302200-
NORTHWEST OKLAHOMA AND THE PANHANDLE

CITY           SKY/WX    TMP DP  RH WIND       PRES   REMARKS
GAGE           CLOUDY    65  42  43 N10G20    29.74F
GUYMON         SUNNY     64  39  39 VRB6      29.74F
ENID/WOODRING  PTSUNNY   57  45  62 MISG      29.74S
$$

OKZ016-021>023-033>039-044-045-302200-
SOUTHWEST OKLAHOMA

CITY           SKY/WX    TMP DP  RH WIND       PRES   REMARKS
LAWTON/REGL    SUNNY     72  46  39 W7        29.72F
LAWTON/FT SILL SUNNY     71  47  42 W8G17     29.71F
FREDERICK      SUNNY     71  46  40 W12       29.71F
CLINTON        SUNNY     67  42  40 NW15      29.73F
HOBART         SUNNY     72  42  34 NW9       29.73F
ALTUS AFB      CLOUDY    72  44  36 SW8       29.72F
$$

OKZ018>020-024>031-302200-
CENTRAL OKLAHOMA

CITY           SKY/WX    TMP DP  RH WIND       PRES   REMARKS
OKLAHOMA CITY  MOSUNNY   62  44  51 NW14G21   29.75S
OKC/WILEY POST MOSUNNY   60  45  57 NW13G22   29.75F
OKC/TINKER AFB SUNNY     60  42  52 NW15G22   29.73F
STILLWATER     CLOUDY    55  41  59 NW13G22   29.75S
GUTHRIE        CLOUDY    56  42  59 NW13G21   29.75S
$$

OKZ008-013-054>072-302200-
NORTHEAST OKLAHOMA

CITY           SKY/WX    TMP DP  RH WIND       PRES   REMARKS
TULSA          CLOUDY    52  42  69 W17       29.72S
TULSA/JONES    CLOUDY    53  41  63 VRB7G18   29.73S
PONCA CITY     CLOUDY    51  40  65 NW16      29.74S
BARTLESVILLE   CLOUDY    50  41  71 W8        29.73S
MUSKOGEE       CLOUDY    54  42  64 W12       29.74F
$$

OKZ032-040>043-046>053-073>077-302200-
SOUTH CENTRAL/SOUTHEAST OKLAHOMA

CITY           SKY/WX    TMP DP  RH WIND       PRES   REMARKS
MCALESTER      CLOUDY    61  42  49 W13       29.73F
$$





USA.gov is the U.S. government's official web portal to all federal, state and local government web resources and services.